[[{"header":{"parameterUnit":"m.s-1","parameterCategory":2,"la1":30.2991,"la2":30.254,"lo1":-89.0895,"lo2":-89.0444,"dy":0.0017,"dx":0.0017,"nx":28,"ny":28,"refTime":"2023-09-22T21:00:00:Z","depth":"0","parameterNumber":2,"parameterNumberName":"U-component_of_CURRENTS"},"data":[0,0,0,0,0,0,0,0,0,0,0,0,0,0,0,0,0,0,0,0,0,0,0,0,0,0,0,0,0,0,0,0,0,0,0,0,0,0,0,0,0,0,0,0,0,0,0,0,0,0,0,0,0,0,0,0,0,0,0.4074,0.4075,0,0.4096,0.4096,0.4096,0.4069,0.4068,0.4068,0.4068,0.4084,0.4085,0.4085,0,0,0,0,0,0,0,0,0,0,0,0,0,0.397,0.3972,0.4074,0.4075,0.4076,0.4096,0.4096,0.4095,0.4069,0.4068,0.4068,0.4068,0.4084,0.4085,0.4086,0,0,0,0,0,0,0,0,0,0,0,0,0,0.3999,0.3972,0.4074,0.4071,0.4071,0.4096,0.4096,0.4095,0.4069,0.4068,0.4068,0.4067,0.4084,0.4085,0.4086,0.41,0,0,0.4089,0.4089,0,0,0,0,0,0,0,0,0.3997,0.4002,0.407,0.4071,0.4072,0.4086,0.4066,0.41,0.4069,0.4061,0.4068,0.4067,0.409,0.409,0.4084,0.4101,0.4102,0.4089,0.409,0.409,0.409,0,0,0,0,0,0,0,0.3995,0.4,0.4075,0.4071,0.4072,0.4056,0.4059,0.4071,0.4071,0.4062,0.4062,0.4077,0.4089,0.4083,0.4085,0.4102,0.4089,0.409,0.409,0.4091,0.4231,0.4234,0,0,0,0,0,0,0.4011,0.3999,0.4074,0.4076,0.4042,0.4059,0.4062,0.4075,0.4071,0.4073,0.4078,0.4076,0.4082,0.4083,0.4085,0.4197,0.409,0.4091,0.4092,0.4228,0.4232,0.4235,0,0,0,0,0,0,0.4009,0.4018,0.4073,0.4044,0.4051,0.4062,0.4077,0.4076,0.4086,0.4085,0.4084,0.4091,0.4081,0.4084,0.4131,0.4194,0.4091,0.4092,0.4225,0.4229,0.4234,0.4362,0,0,0,0,0,0,0.4006,0.4016,0.4036,0.4045,0.4054,0.4116,0.4078,0.4077,0.4099,0.4097,0.4096,0.4096,0.4081,0.413,0.4132,0.4194,0.4093,0.4221,0.4227,0.4232,0.4353,0.437,0.4384,0,0,0,0,0,0.4002,0.4027,0.4036,0.4046,0.4079,0.4119,0.4122,0.4122,0.41,0.4123,0.4127,0.4096,0.4168,0.4133,0.4135,0.4199,0.4218,0.4225,0.4232,0.4346,0.4367,0.4384,0,0,0,0,0,0,0.398,0.4028,0.4038,0.4074,0.4111,0.4118,0.4136,0.4135,0.4152,0.4153,0.4131,0.4133,0.4207,0.4183,0.4145,0.4258,0.4191,0.4198,0.4277,0.4296,0.4311,0.4331,0.4094,0,0,0,0,0,0.3991,0.4027,0.4069,0.4098,0.412,0.4131,0.4147,0.4158,0.4174,0.4179,0.418,0.4193,0.4235,0.4248,0.4275,0.4325,0.4322,0.437,0.4386,0.4399,0.4418,0.4468,0.449,0.4258,0.4258,0.4258,0,0,0.3987,0.4021,0.4039,0.4098,0.4116,0.4171,0.4137,0.418,0.4234,0.4181,0.4241,0.4252,0.4265,0.4336,0.4365,0.4322,0.4467,0.4407,0.4419,0.4431,0.4478,0.45,0.452,0.4263,0.4262,0.4261,0,0,0.3999,0.4034,0.4069,0.4117,0.4178,0.4205,0.4227,0.426,0.4284,0.4343,0.434,0.4397,0.4417,0.4464,0.4483,0.46,0.4556,0.4597,0.468,0.473,0.4749,0.4766,0.4801,0.482,0.4593,0.4593,0.4593,0,0.3992,0.4047,0.4086,0.4142,0.4186,0.4227,0.4282,0.4331,0.4378,0.4416,0.4382,0.4479,0.449,0.4607,0.4649,0.464,0.4639,0.4606,0.475,0.4766,0.4781,0.4813,0.4832,0.46,0.4599,0.4599,0.4598,0,0.4035,0.4091,0.4118,0.4211,0.4268,0.4325,0.4409,0.4471,0.4496,0.4538,0.4646,0.4669,0.4724,0.4745,0.4729,0.4858,0.4815,0.4771,0.4699,0.4812,0.4838,0.4856,0.461,0.4608,0.4606,0.4604,0,0,0.3976,0.4119,0.4127,0.4188,0.4311,0.436,0.448,0.4592,0.4662,0.473,0.4808,0.4913,0.4919,0.4945,0.4949,0.499,0.5104,0.4922,0.4921,0.4953,0.5199,0.5068,0.5073,0.5068,0.5071,0.5074,0.5177,0,0.3992,0.4103,0.4173,0.429,0.436,0.4457,0.4551,0.467,0.475,0.4843,0.4926,0.5002,0.5001,0.5018,0.5082,0.5085,0.5154,0.508,0.5089,0.509,0.4956,0.5091,0.4791,0.4848,0.5194,0.5197,0.5199,0,0.4004,0.4085,0.4192,0.4339,0.4373,0.4446,0.4606,0.4706,0.4874,0.4929,0.5052,0.5097,0.5226,0.517,0.5297,0.5238,0.5252,0.5248,0.5251,0.5096,0.4992,0.479,0.4866,0.4749,0.5225,0.5223,0.5221,0,0.3952,0.4094,0.4179,0.4234,0.4407,0.4463,0.4553,0.472,0.4818,0.4991,0.5056,0.5207,0.5269,0.5327,0.537,0.5325,0.5464,0.5395,0.5315,0.5304,0.5037,0.4996,0.4992,0.5511,0.551,0.551,0.551,0,0.3957,0.4024,0.4154,0.4212,0.4314,0.4427,0.4546,0.4669,0.4822,0.4941,0.5093,0.5195,0.5305,0.5401,0.5415,0.543,0.5522,0.5368,0.5337,0.5072,0.5036,0.4907,0.4867,0.5514,0.5513,0.5512,0.5512,0,0.3922,0.4002,0.4115,0.4262,0.4303,0.4382,0.4545,0.4626,0.4779,0.4934,0.4991,0.5206,0.5312,0.5416,0.5505,0.5474,0.5329,0.5486,0.5166,0.5095,0.4838,0.4815,0.4649,0.4525,0.5385,0.5382,0.538,0,0.3921,0.3977,0.4135,0.4186,0.4253,0.4366,0.4433,0.4598,0.4682,0.4933,0.4988,0.5169,0.5265,0.5373,0.5331,0.5345,0.5252,0.5092,0.4961,0.4819,0.4774,0.4636,0.4535,0.4668,0.466,0.4654,0.4649,0,0.3929,0.398,0.4063,0.4162,0.4232,0.4338,0.4434,0.4489,0.4672,0.4773,0.4918,0.5011,0.5123,0.4993,0.5024,0.4998,0.48,0.496,0.4892,0.4295,0.4064,0.3927,0.4619,0.4593,0.4599,0.4603,0.4606,0.4608,0.3906,0.3946,0.4026,0.4106,0.4196,0.4257,0.4248,0.4342,0.4421,0.4486,0.4715,0.4711,0.4688,0.4655,0.4623,0.4353,0.4425,0.4172,0.4188,0.4088,0.3861,0.4437,0.432,0.4323,0.4327,0.433,0.4332,0,0.3826,0.3863,0.3954,0.4012,0.4037,0.4134,0.4188,0.4108,0.4074,0.4217,0.4273,0.417,0.4026,0.3996,0.3786,0.3615,0.3466,0.3513,0.3254,0.322,0.3789,0.3649,0.328,0.328,0.328,0.328,0.328,0.328,0.3773,0.3781,0.3812,0.3802,0.3839,0.3759,0.3733,0.3658,0.3673,0.356,0.3468,0.3516,0.3556,0.3421,0.3197,0.3111,0.2928,0.2708,0.284,0.3241,0.3303,0.3363,0.3223,0.2771,0.2771,0.2064,0.2059,0.2055]},{"header":{"parameterUnit":"m.s-1","parameterCategory":2,"la1":30.2991,"la2":30.254,"lo1":-89.0895,"lo2":-89.0444,"dy":0.0017,"dx":0.0017,"nx":28,"ny":28,"refTime":"2023-09-22T21:00:00:Z","depth":"0","parameterNumber":3,"parameterNumberName":"V-component_of_CURRENTS"},"data":[0,0,0,0,0,0,0,0,0,0,0,0,0,0,0,0,0,0,0,0,0,0,0,0,0,0,0,0,0,0,0,0,0,0,0,0,0,0,0,0,0,0,0,0,0,0,0,0,0,0,0,0,0,0,0,0,0,0,0.0212,0.0211,0,0.015,0.0149,0.0148,0.0108,0.0108,0.0108,0.0108,0.0009,0.0006,0.0004,0,0,0,0,0,0,0,0,0,0,0,0,0,0.0227,0.0228,0.0212,0.0211,0.021,0.015,0.0149,0.0148,0.0108,0.0108,0.0108,0.0108,0.001,0.0007,0.0004,0,0,0,0,0,0,0,0,0,0,0,0,0,0.0197,0.0228,0.0212,0.0184,0.0181,0.015,0.0149,0.0148,0.0108,0.0108,0.0108,0.0108,0.0011,0.0007,0.0003,-0.0016,0,0,-0.0008,-0.001,0,0,0,0,0,0,0,0,0.0199,0.0197,0.0189,0.0186,0.0183,0.0138,0.0118,0.0091,0.0108,0.0134,0.0108,0.0108,0.005,0.0043,0.003,-0.0021,-0.0025,-0.0009,-0.0011,-0.0012,-0.0014,0,0,0,0,0,0,0,0.0201,0.0199,0.0186,0.0188,0.0184,0.0152,0.0148,0.0113,0.0092,0.0132,0.0129,0.0125,0.0047,0.0034,0.0027,-0.0027,-0.0008,-0.0012,-0.0014,-0.0016,-0.0092,-0.0091,0,0,0,0,0,0,0.0216,0.0201,0.0188,0.0184,0.0192,0.0152,0.0147,0.0151,0.0093,0.0085,0.0125,0.0123,0.004,0.0032,0.0024,0.0021,-0.0012,-0.0016,-0.0018,-0.0092,-0.0092,-0.0091,0,0,0,0,0,0,0.0217,0.0216,0.019,0.0192,0.0186,0.0153,0.0157,0.015,0.0139,0.0088,0.0079,0.0122,0.004,0.0029,0.0,0.0016,-0.0018,-0.0021,-0.0092,-0.0092,-0.0091,0.0001,0,0,0,0,0,0,0.0217,0.0216,0.0224,0.0193,0.0187,0.018,0.0157,0.0149,0.0137,0.0134,0.0082,0.0073,0.0039,0.0006,-0.0003,0.001,-0.0024,-0.0092,-0.0092,-0.0091,-0.0003,0.0004,0.001,0,0,0,0,0,0.0218,0.0234,0.0225,0.0223,0.0199,0.0181,0.0175,0.0148,0.0137,0.0137,0.0103,0.0074,0.0002,0.0003,-0.0008,0.0005,-0.0093,-0.0092,-0.0092,-0.0006,0.0003,0.001,0,0,0,0,0,0,0.0241,0.0231,0.022,0.0231,0.021,0.0175,0.0174,0.0154,0.0127,0.0126,0.0076,0.0064,0.0045,0.0009,0.0012,-0.0017,-0.005,-0.0051,0.002,0.0027,0.0033,0.0079,-0.0027,0,0,0,0,0,0.0252,0.0263,0.0239,0.0246,0.024,0.0208,0.0197,0.0181,0.0153,0.0141,0.0104,0.0066,0.0037,0.0021,-0.0014,-0.003,-0.0034,-0.0031,-0.0024,-0.0018,0.001,0.002,0.0031,-0.0089,-0.0089,-0.0089,0,0,0.026,0.0258,0.0262,0.0252,0.0235,0.0239,0.0201,0.0194,0.0198,0.0134,0.0126,0.0085,0.0037,0.0022,0.001,-0.0005,0.0011,-0.0018,-0.0012,0.0014,0.0022,0.0034,0.0045,-0.0089,-0.0089,-0.0089,0,0,0.0291,0.0284,0.0305,0.0295,0.0282,0.0265,0.0267,0.0237,0.0223,0.0207,0.0167,0.0148,0.0087,0.0072,0.0052,0.0073,0.0043,0.0045,0.0118,0.0127,0.0138,0.0148,0.0157,0.0166,0.0051,0.0051,0.0051,0,0.0303,0.0327,0.0305,0.0322,0.0326,0.0283,0.0306,0.0285,0.0248,0.025,0.0216,0.0172,0.0121,0.0131,0.0131,0.0092,0.0088,0.0096,0.014,0.0149,0.0157,0.0164,0.0174,0.0056,0.0055,0.0055,0.0054,0,0.0347,0.0366,0.0377,0.0391,0.039,0.04,0.0377,0.0373,0.0349,0.033,0.0328,0.0272,0.0255,0.0224,0.0179,0.0212,0.0186,0.0148,0.013,0.0176,0.0178,0.0187,0.0062,0.006,0.0059,0.0058,0,0,0.0384,0.0406,0.0412,0.0437,0.0432,0.0441,0.0453,0.0459,0.0489,0.0442,0.0485,0.0419,0.0398,0.0376,0.0324,0.0322,0.036,0.0263,0.0261,0.029,0.0384,0.0344,0.0348,0.0326,0.0328,0.033,0.0362,0,0.0429,0.0484,0.0481,0.0534,0.0562,0.0542,0.0565,0.0565,0.0554,0.058,0.0537,0.0546,0.0452,0.0457,0.0442,0.0382,0.0386,0.0355,0.032,0.0319,0.0293,0.0359,0.0348,0.0374,0.037,0.0371,0.0372,0,0.0479,0.0514,0.0577,0.0627,0.0639,0.0666,0.0717,0.0732,0.0746,0.0741,0.0746,0.0708,0.0704,0.062,0.0571,0.0553,0.0485,0.0434,0.0433,0.0377,0.0296,0.0325,0.0389,0.0232,0.0385,0.0384,0.0383,0,0.0533,0.0585,0.0646,0.0659,0.0703,0.0738,0.0764,0.0787,0.0828,0.086,0.0905,0.0871,0.0888,0.08,0.0677,0.0629,0.063,0.0549,0.0458,0.0454,0.0431,0.0422,0.0359,0.0538,0.0538,0.0538,0.0538,0,0.0592,0.0642,0.068,0.0716,0.0806,0.0809,0.0905,0.0922,0.0979,0.1066,0.1003,0.108,0.0934,0.0903,0.076,0.0651,0.0696,0.0503,0.0472,0.0459,0.0452,0.03,0.0204,0.0539,0.0539,0.0539,0.0539,0,0.0653,0.067,0.0748,0.0809,0.0837,0.0906,0.1,0.1067,0.1106,0.123,0.1254,0.1256,0.1219,0.1066,0.0947,0.078,0.0571,0.0611,0.0605,0.0572,0.03,0.021,0.0125,0.0062,0.0512,0.0512,0.0511,0,0.0694,0.0738,0.0825,0.0882,0.0919,0.1013,0.1082,0.1133,0.1216,0.1352,0.143,0.144,0.1486,0.129,0.1007,0.0781,0.0603,0.0585,0.0482,0.0316,0.0192,0.0117,0.0066,0.0487,0.0487,0.0486,0.0486,0,0.0783,0.0808,0.0876,0.0982,0.1065,0.1165,0.1272,0.136,0.145,0.1575,0.1741,0.1799,0.1621,0.1399,0.1056,0.087,0.0459,0.0563,0.0404,0.0192,0.0098,0.0013,0.0428,0.0481,0.0481,0.0482,0.0482,0.0482,0.0856,0.0915,0.0992,0.1095,0.1191,0.1315,0.1419,0.155,0.1724,0.1934,0.1974,0.2109,0.1732,0.1278,0.0998,0.0441,0.0443,0.0246,0.0161,0.0109,0.0017,0.0421,0.0419,0.0419,0.0419,0.042,0.042,0,0.0937,0.0996,0.1098,0.1222,0.1334,0.1366,0.1544,0.1663,0.1892,0.2108,0.2273,0.2173,0.1727,0.1227,0.0469,0.0095,-0.0032,-0.0103,-0.0211,-0.0238,0.0141,0.0105,0.0021,0.0021,0.0021,0.0021,0.0022,0.0022,0.0985,0.1083,0.1123,0.1314,0.1408,0.157,0.1679,0.1867,0.205,0.2305,0.2404,0.2445,0.2031,0.0753,-0.0102,-0.0286,-0.0511,-0.0576,-0.0674,-0.0437,-0.0411,-0.0386,-0.0442,-0.0639,-0.064,-0.1013,-0.1017,-0.102]}],[{"header":{"parameterUnit":"m.s-1","parameterCategory":2,"la1":30.2991,"la2":30.254,"lo1":-89.0895,"lo2":-89.0444,"dy":0.0017,"dx":0.0017,"nx":28,"ny":28,"refTime":"2023-09-22T21:00:00:Z","depth":"2","parameterNumber":2,"parameterNumberName":"U-component_of_CURRENTS"},"data":[0,0,0,0,0,0,0,0,0,0,0,0,0,0,0,0,0,0,0,0,0,0,0,0,0,0,0,0,0,0,0,0,0,0,0,0,0,0,0,0,0,0,0,0,0,0,0,0,0,0,0,0,0,0,0,0,0,0,0.2941,0.2941,0,0.2988,0.2989,0.299,0.296,0.2958,0.2956,0.2955,0.2949,0.2951,0.2952,0,0,0,0,0,0,0,0,0,0,0,0,0,0.29,0.2901,0.2941,0.2941,0.2941,0.2988,0.2989,0.299,0.296,0.2958,0.2956,0.2954,0.2949,0.2951,0.2952,0,0,0,0,0,0,0,0,0,0,0,0,0,0.2934,0.2901,0.294,0.2928,0.2927,0.2988,0.2989,0.299,0.2961,0.2958,0.2955,0.2953,0.2948,0.295,0.2953,0.3022,0,0,0.296,0.2961,0,0,0,0,0,0,0,0,0.2932,0.2936,0.293,0.2929,0.2928,0.2961,0.2973,0.2997,0.2961,0.2953,0.2955,0.2951,0.2948,0.295,0.2972,0.3021,0.3021,0.296,0.2961,0.2962,0.2963,0,0,0,0,0,0,0,0.2929,0.2934,0.2964,0.293,0.2929,0.2946,0.2948,0.2978,0.2967,0.2953,0.295,0.2949,0.2947,0.297,0.2971,0.3021,0.296,0.2962,0.2963,0.2964,0.3116,0.3119,0,0,0,0,0,0,0.2914,0.2932,0.2962,0.2965,0.2918,0.2949,0.2951,0.2957,0.2968,0.2966,0.2952,0.2948,0.2967,0.2969,0.2971,0.3033,0.2962,0.2965,0.2966,0.3114,0.3117,0.312,0,0,0,0,0,0,0.2913,0.2917,0.296,0.2945,0.2951,0.2951,0.296,0.2959,0.2986,0.2966,0.2964,0.2977,0.2965,0.2968,0.2985,0.3032,0.2966,0.2968,0.3111,0.3115,0.3119,0.3169,0,0,0,0,0,0,0.2912,0.2916,0.2925,0.2944,0.2951,0.299,0.2962,0.2962,0.2987,0.2983,0.2989,0.2985,0.2963,0.2982,0.2988,0.3034,0.297,0.3107,0.3113,0.3117,0.3164,0.3174,0.3183,0,0,0,0,0,0.2911,0.2924,0.2925,0.2929,0.296,0.299,0.2997,0.299,0.2991,0.3006,0.3001,0.2985,0.3018,0.2985,0.2992,0.304,0.3105,0.3111,0.3117,0.3159,0.3172,0.3182,0,0,0,0,0,0,0.2925,0.2922,0.2924,0.294,0.2962,0.2983,0.3002,0.3011,0.3028,0.3024,0.3009,0.3006,0.3047,0.3044,0.3009,0.3103,0.3065,0.3072,0.3095,0.3107,0.3116,0.3158,0.2972,0,0,0,0,0,0.2931,0.2926,0.2946,0.296,0.2978,0.3003,0.3019,0.3019,0.3032,0.3039,0.304,0.3054,0.3084,0.3089,0.311,0.3158,0.3177,0.3199,0.3208,0.3216,0.3258,0.3306,0.3323,0.3139,0.3139,0.3139,0,0,0.293,0.2937,0.2929,0.296,0.2985,0.3009,0.3007,0.3038,0.3066,0.3038,0.3077,0.309,0.3107,0.315,0.317,0.3145,0.3279,0.3224,0.323,0.3268,0.3314,0.3332,0.3347,0.3144,0.3143,0.3142,0,0,0.2933,0.2952,0.2951,0.2972,0.3004,0.3025,0.3039,0.3074,0.3101,0.3147,0.3137,0.3179,0.3214,0.3235,0.3253,0.334,0.3332,0.3345,0.342,0.3465,0.348,0.3494,0.3534,0.3551,0.3343,0.3343,0.3343,0,0.2926,0.2946,0.296,0.2979,0.2992,0.3035,0.3053,0.3105,0.3135,0.3178,0.3161,0.326,0.3268,0.3343,0.3373,0.3364,0.3381,0.3364,0.3476,0.349,0.3503,0.3541,0.3559,0.3346,0.3346,0.3345,0.3345,0,0.2939,0.2954,0.2969,0.2993,0.3013,0.3044,0.3097,0.313,0.3176,0.3244,0.3341,0.3363,0.3418,0.3437,0.3438,0.3543,0.3522,0.3482,0.344,0.3525,0.3559,0.3577,0.3351,0.3349,0.3349,0.3348,0,0,0.2905,0.2959,0.2959,0.2976,0.3024,0.3042,0.3094,0.3177,0.3269,0.332,0.3411,0.3505,0.355,0.3577,0.3581,0.364,0.3746,0.3612,0.3612,0.3641,0.3848,0.3703,0.3708,0.3711,0.3715,0.3718,0.383,0,0.2909,0.2939,0.2962,0.299,0.3016,0.3049,0.3115,0.3193,0.3305,0.3408,0.3482,0.3598,0.3597,0.3638,0.3693,0.3751,0.3798,0.3721,0.3774,0.3776,0.3628,0.3726,0.3417,0.348,0.3847,0.385,0.3852,0,0.2908,0.293,0.2959,0.3008,0.3027,0.3059,0.3165,0.3234,0.3401,0.3492,0.3604,0.3684,0.3801,0.3763,0.3912,0.3859,0.3873,0.3902,0.3904,0.3773,0.3665,0.3459,0.3498,0.3881,0.3879,0.3877,0.3875,0,0.2876,0.2918,0.2943,0.2957,0.3033,0.3057,0.311,0.3274,0.3369,0.3564,0.3651,0.3805,0.3866,0.3939,0.3996,0.3975,0.4118,0.4079,0.3958,0.3947,0.3702,0.3663,0.4165,0.4165,0.4165,0.4164,0.4164,0,0.2865,0.2876,0.2942,0.2956,0.302,0.3065,0.3198,0.328,0.343,0.3566,0.3706,0.38,0.3917,0.3992,0.4033,0.4052,0.4142,0.4014,0.3979,0.3708,0.367,0.4029,0.4011,0.4169,0.4168,0.4167,0.4166,0,0.2819,0.2861,0.2895,0.2975,0.3011,0.3055,0.319,0.3283,0.3455,0.3597,0.3646,0.3818,0.3941,0.4013,0.413,0.4083,0.4127,0.4082,0.3754,0.3679,0.3927,0.3911,0.4026,0.4022,0.4019,0.4016,0.4014,0,0.2798,0.2818,0.2901,0.2928,0.2969,0.306,0.312,0.3271,0.3363,0.3604,0.3627,0.3795,0.3861,0.3965,0.3941,0.3965,0.4044,0.3666,0.3578,0.3965,0.392,0.3909,0.3899,0.3281,0.3273,0.3266,0.3261,0,0.2759,0.2798,0.283,0.2892,0.2942,0.301,0.3104,0.316,0.3336,0.3426,0.3537,0.3611,0.3719,0.3596,0.3606,0.3581,0.3651,0.353,0.4033,0.3346,0.3266,0.322,0.3234,0.3202,0.3208,0.3212,0.3215,0.3218,0.2729,0.2744,0.2792,0.283,0.2887,0.2919,0.2922,0.2995,0.3055,0.3119,0.3302,0.329,0.3346,0.3213,0.3121,0.3064,0.3328,0.3188,0.3208,0.3235,0.3111,0.3027,0.2896,0.29,0.2904,0.2907,0.2909,0,0.2664,0.2681,0.2715,0.2723,0.2703,0.2804,0.2859,0.2792,0.2745,0.2849,0.2876,0.2671,0.2598,0.2669,0.2494,0.2497,0.2474,0.2397,0.2341,0.2403,0.2457,0.2291,0.1861,0.1857,0.1854,0.1851,0,0,0.2627,0.2604,0.2602,0.2518,0.2539,0.2469,0.2472,0.2384,0.2397,0.2292,0.2264,0.2455,0.2585,0.2182,0.2134,0.1965,0.2165,0.1887,0.2733,0.2728,0.2778,0.2923,0.2739,0,0,0,0,0]},{"header":{"parameterUnit":"m.s-1","parameterCategory":2,"la1":30.2991,"la2":30.254,"lo1":-89.0895,"lo2":-89.0444,"dy":0.0017,"dx":0.0017,"nx":28,"ny":28,"refTime":"2023-09-22T21:00:00:Z","depth":"2","parameterNumber":3,"parameterNumberName":"V-component_of_CURRENTS"},"data":[0,0,0,0,0,0,0,0,0,0,0,0,0,0,0,0,0,0,0,0,0,0,0,0,0,0,0,0,0,0,0,0,0,0,0,0,0,0,0,0,0,0,0,0,0,0,0,0,0,0,0,0,0,0,0,0,0,0,0.0149,0.0148,0,0.0099,0.0098,0.0098,0.0068,0.0068,0.0068,0.0068,-0.0002,-0.0003,-0.0005,0,0,0,0,0,0,0,0,0,0,0,0,0,0.0154,0.0154,0.0149,0.0148,0.0148,0.0099,0.0098,0.0098,0.0068,0.0068,0.0068,0.0068,-0.0001,-0.0003,-0.0005,0,0,0,0,0,0,0,0,0,0,0,0,0,0.0132,0.0154,0.0149,0.0127,0.0125,0.0099,0.0098,0.0098,0.0068,0.0068,0.0068,0.0068,-0.0,-0.0003,-0.0005,-0.0019,0,0,-0.0013,-0.0015,0,0,0,0,0,0,0,0,0.0134,0.0132,0.0131,0.0129,0.0126,0.009,0.0075,0.0058,0.0068,0.0089,0.0068,0.0068,0.0028,0.0023,0.0013,-0.0022,-0.0025,-0.0014,-0.0015,-0.0016,-0.0017,0,0,0,0,0,0,0,0.0135,0.0134,0.0129,0.0131,0.0127,0.0098,0.0096,0.0071,0.0059,0.0087,0.0085,0.0081,0.0026,0.0016,0.0011,-0.0026,-0.0014,-0.0016,-0.0018,-0.0019,-0.0072,-0.0072,0,0,0,0,0,0,0.0146,0.0136,0.013,0.0127,0.013,0.0099,0.0096,0.0101,0.006,0.0054,0.0081,0.0079,0.0021,0.0015,0.0009,0.0011,-0.0016,-0.0019,-0.002,-0.0072,-0.0072,-0.0072,0,0,0,0,0,0,0.0147,0.0146,0.0132,0.013,0.0126,0.0099,0.0106,0.0101,0.0093,0.0055,0.0048,0.0079,0.002,0.0013,-0.0003,0.0007,-0.002,-0.0023,-0.0073,-0.0072,-0.0072,0.0002,0,0,0,0,0,0,0.0147,0.0147,0.0155,0.0131,0.0127,0.0126,0.0106,0.01,0.0091,0.0088,0.0051,0.0045,0.002,0.0001,-0.0006,0.0003,-0.0025,-0.0073,-0.0073,-0.0072,-0.0001,0.0004,0.0009,0,0,0,0,0,0.0148,0.0164,0.0156,0.0155,0.0138,0.0127,0.0122,0.0101,0.0091,0.0093,0.007,0.0046,-0.0002,-0.0,-0.0009,-0.0,-0.0073,-0.0073,-0.0072,-0.0003,0.0003,0.0009,0,0,0,0,0,0,0.0168,0.0161,0.0152,0.0165,0.015,0.0122,0.0122,0.0106,0.0089,0.0089,0.005,0.0042,0.0031,0.0003,0.0006,-0.0017,-0.0043,-0.0044,0.0012,0.0018,0.0023,0.0054,-0.0027,0,0,0,0,0,0.0176,0.0189,0.017,0.018,0.0175,0.0148,0.014,0.0129,0.011,0.0102,0.0075,0.0047,0.0025,0.0014,-0.0012,-0.0022,-0.004,-0.0024,-0.0019,-0.0014,0.0004,-0.0014,-0.0008,-0.0071,-0.0071,-0.0071,0,0,0.0183,0.0184,0.0188,0.0185,0.0171,0.0179,0.0144,0.014,0.0149,0.0097,0.0098,0.0063,0.0025,0.0016,0.0008,-0.0004,-0.0009,-0.0014,-0.0009,0.0007,-0.0012,-0.0006,-0.0001,-0.0071,-0.0071,-0.0071,0,0,0.0211,0.0208,0.0227,0.0224,0.0215,0.0202,0.0205,0.0182,0.0173,0.0164,0.0132,0.0112,0.007,0.0055,0.0039,0.0055,0.0018,0.0036,0.009,0.0072,0.0077,0.0082,0.0062,0.0065,0.004,0.004,0.004,0,0.0221,0.0248,0.0229,0.0249,0.0256,0.0219,0.0243,0.0228,0.0204,0.0207,0.0175,0.0133,0.0093,0.0098,0.0097,0.0069,0.005,0.0073,0.0081,0.0085,0.0089,0.0067,0.0069,0.0044,0.0043,0.0043,0.0043,0,0.0264,0.0286,0.0297,0.0316,0.032,0.0333,0.0317,0.0318,0.0296,0.0278,0.027,0.0215,0.0195,0.017,0.0135,0.0144,0.0119,0.009,0.0072,0.01,0.0075,0.0075,0.0049,0.0048,0.0047,0.0046,0,0,0.0292,0.0323,0.0329,0.0357,0.0362,0.0374,0.0393,0.0402,0.043,0.038,0.0407,0.0345,0.0311,0.0291,0.0244,0.0221,0.0214,0.0169,0.0166,0.0162,0.0174,0.0133,0.0129,0.0185,0.0186,0.0187,0.0146,0,0.0334,0.0396,0.0397,0.0455,0.0487,0.0475,0.0503,0.0507,0.0494,0.0507,0.0447,0.0446,0.0358,0.0356,0.0315,0.0247,0.022,0.0228,0.0138,0.0136,0.0105,0.013,0.0154,0.0118,0.0146,0.0146,0.0146,0,0.0383,0.0423,0.0489,0.0548,0.0561,0.0587,0.0642,0.0663,0.0665,0.0655,0.0634,0.0585,0.0549,0.0469,0.0366,0.0374,0.0283,0.0219,0.0215,0.0156,0.0096,0.0093,0.0117,0.0146,0.0146,0.0146,0.0146,0,0.0433,0.0492,0.0553,0.057,0.0622,0.0656,0.0686,0.0709,0.0754,0.076,0.079,0.0717,0.0701,0.0583,0.0419,0.0402,0.03,0.026,0.0139,0.0134,0.0129,0.0123,0.0193,0.0193,0.0193,0.0193,0.0193,0,0.049,0.0539,0.0582,0.0617,0.0708,0.0718,0.0811,0.0831,0.0878,0.0953,0.0872,0.0909,0.0728,0.0637,0.0475,0.0307,0.0337,0.0162,0.0127,0.0152,0.0149,0.0151,0.0147,0.0192,0.0192,0.0192,0.0192,0,0.0539,0.0561,0.0641,0.0706,0.0736,0.0803,0.0906,0.0973,0.1003,0.1104,0.1117,0.1061,0.0947,0.0746,0.0558,0.0394,0.0231,0.0158,0.0195,0.0164,0.0066,0.0066,0.0046,0.0044,0.0043,0.0042,0.0041,0,0.0572,0.0615,0.0711,0.0773,0.0805,0.0904,0.0981,0.1037,0.1121,0.1204,0.1263,0.1186,0.1141,0.0835,0.0545,0.0269,0.0221,0.0101,0.0069,0.0087,0.0054,0.0056,0.0058,0.0088,0.0088,0.0087,0.0087,0,0.0639,0.0665,0.0732,0.0857,0.0945,0.1061,0.1173,0.1259,0.1342,0.1415,0.1487,0.1458,0.1183,0.0906,0.0517,0.0326,0.0145,0.0083,0.0108,0.0115,0.0121,0.0091,0.0092,0.0083,0.0084,0.0084,0.0084,0.0084,0.0689,0.0747,0.0832,0.0952,0.1063,0.1205,0.1303,0.1413,0.1546,0.1642,0.1624,0.1567,0.1278,0.0775,0.0456,0.0114,0.0134,0.0006,0.001,0.0014,0.002,0.0022,-0.0033,-0.0033,-0.0034,-0.0034,-0.0034,0,0.0752,0.0815,0.0925,0.1067,0.1192,0.1244,0.1424,0.1504,0.1644,0.1706,0.173,0.1442,0.1152,0.081,0.0318,0.0028,0.001,-0.0079,-0.0027,-0.0021,-0.0016,-0.001,-0.0072,-0.0073,-0.0074,-0.0075,0,0,0.0788,0.0889,0.094,0.1147,0.1252,0.141,0.1511,0.1613,0.1687,0.1713,0.1673,0.1609,0.124,0.0872,0.0487,0.0209,0.0153,0.0142,0.0205,0.0318,0.0326,0.0065,0.0085,0,0,0,0,0]}],[{"header":{"parameterUnit":"m.s-1","parameterCategory":2,"la1":30.2991,"la2":30.254,"lo1":-89.0895,"lo2":-89.0444,"dy":0.0017,"dx":0.0017,"nx":28,"ny":28,"refTime":"2023-09-22T21:00:00:Z","depth":"4","parameterNumber":2,"parameterNumberName":"U-component_of_CURRENTS"},"data":[0,0,0,0,0,0,0,0,0,0,0,0,0,0,0,0,0,0,0,0,0,0,0,0,0,0,0,0,0,0,0,0,0,0,0,0,0,0,0,0,0,0,0,0,0,0,0,0,0,0,0,0,0,0,0,0,0,0,0.1661,0.1661,0,0.17,0.17,0.17,0.1732,0.1732,0.1733,0.1733,0.1769,0.1769,0.1769,0,0,0,0,0,0,0,0,0,0,0,0,0,0.1644,0.1644,0.1661,0.1661,0.1662,0.17,0.17,0.17,0.1732,0.1732,0.1733,0.1734,0.1768,0.1769,0.177,0,0,0,0,0,0,0,0,0,0,0,0,0,0.1662,0.1644,0.166,0.1684,0.1686,0.17,0.17,0.1701,0.1732,0.1732,0.1733,0.1734,0.1768,0.1769,0.177,0.1758,0,0,0.1772,0.1772,0,0,0,0,0,0,0,0,0.1661,0.1662,0.168,0.1682,0.1685,0.1714,0.1707,0.172,0.1731,0.1712,0.1733,0.1734,0.1751,0.1753,0.1755,0.176,0.1762,0.1772,0.1772,0.1772,0.1773,0,0,0,0,0,0,0,0.1659,0.1661,0.1674,0.168,0.1684,0.1703,0.1706,0.171,0.1725,0.1714,0.1717,0.1724,0.1752,0.1755,0.1757,0.1762,0.1772,0.1772,0.1773,0.1773,0.1844,0.1846,0,0,0,0,0,0,0.1656,0.1659,0.1673,0.1675,0.1677,0.1703,0.1706,0.1702,0.1725,0.173,0.1724,0.1726,0.1753,0.1756,0.1758,0.182,0.1772,0.1773,0.1773,0.1843,0.1845,0.1846,0,0,0,0,0,0,0.1656,0.1657,0.1671,0.1671,0.1674,0.1702,0.1698,0.1702,0.1739,0.1733,0.1737,0.176,0.1754,0.1757,0.1789,0.1818,0.1773,0.1774,0.1841,0.1844,0.1846,0.1896,0,0,0,0,0,0,0.1655,0.1656,0.1666,0.167,0.1674,0.1695,0.1697,0.1703,0.1741,0.1745,0.1764,0.1767,0.1755,0.1788,0.179,0.1819,0.1775,0.1839,0.1842,0.1845,0.1892,0.1899,0.1905,0,0,0,0,0,0.1654,0.1656,0.1666,0.1669,0.1682,0.1696,0.17,0.1721,0.1743,0.1758,0.1777,0.1768,0.1807,0.179,0.1792,0.1821,0.1838,0.1841,0.1845,0.1889,0.1898,0.1905,0,0,0,0,0,0,0.1656,0.166,0.1671,0.1676,0.1695,0.1703,0.1726,0.1742,0.177,0.1787,0.1783,0.1786,0.1822,0.1819,0.18,0.1851,0.1823,0.1827,0.1856,0.1864,0.1871,0.1887,0.1775,0,0,0,0,0,0.1661,0.1671,0.1676,0.1691,0.17,0.1723,0.1739,0.1755,0.1773,0.1789,0.1802,0.182,0.1831,0.1848,0.1851,0.1882,0.19,0.1904,0.1911,0.1916,0.1932,0.1997,0.2011,0.1857,0.1857,0.1857,0,0,0.1671,0.1676,0.1684,0.1694,0.1715,0.1723,0.1735,0.177,0.1786,0.1787,0.1827,0.1841,0.1844,0.1873,0.189,0.1879,0.1967,0.1921,0.1925,0.1938,0.2002,0.2017,0.203,0.186,0.1859,0.1859,0,0,0.1683,0.1699,0.1705,0.1719,0.175,0.1756,0.1773,0.1798,0.1822,0.1857,0.1862,0.1903,0.1921,0.193,0.1936,0.1986,0.1996,0.1993,0.2046,0.2108,0.2122,0.2134,0.2164,0.2178,0.2002,0.2002,0.2002,0,0.17,0.1699,0.1714,0.1721,0.1739,0.1772,0.1784,0.1805,0.1841,0.1866,0.1879,0.1946,0.1946,0.1989,0.2009,0.2001,0.2035,0.2012,0.2118,0.213,0.2142,0.217,0.2185,0.2005,0.2004,0.2004,0.2004,0,0.1696,0.1714,0.1725,0.1739,0.1758,0.1783,0.1804,0.1838,0.1879,0.1902,0.1974,0.1999,0.2046,0.2051,0.2046,0.2129,0.2124,0.2114,0.2098,0.2161,0.2186,0.2201,0.2009,0.2008,0.2007,0.2006,0,0,0.1691,0.1716,0.1727,0.174,0.1774,0.1787,0.1822,0.1858,0.1896,0.1958,0.2025,0.2066,0.2115,0.2127,0.2144,0.2203,0.2301,0.2207,0.2209,0.2237,0.2438,0.2273,0.2273,0.2325,0.2328,0.233,0.2418,0,0.1693,0.1705,0.1721,0.1751,0.1759,0.18,0.183,0.1874,0.1921,0.1991,0.2061,0.2127,0.2133,0.2184,0.2246,0.2293,0.2347,0.2278,0.2373,0.2375,0.2222,0.2287,0.2341,0.2429,0.2432,0.2435,0.2436,0,0.1675,0.169,0.1712,0.1759,0.177,0.18,0.1865,0.19,0.1988,0.2035,0.213,0.2184,0.2295,0.2292,0.2428,0.2394,0.2428,0.2456,0.2459,0.2302,0.2239,0.2356,0.2463,0.2461,0.2459,0.2457,0.2456,0,0.1641,0.1685,0.1708,0.1722,0.1772,0.1813,0.1859,0.1928,0.1978,0.209,0.2159,0.2271,0.2379,0.2445,0.2516,0.2493,0.2654,0.2616,0.2493,0.2481,0.258,0.2567,0.2708,0.2708,0.2708,0.2708,0.2707,0,0.1607,0.1632,0.1708,0.1711,0.1769,0.1819,0.1891,0.194,0.2046,0.211,0.2211,0.2296,0.2436,0.2535,0.2559,0.2577,0.2692,0.2516,0.2502,0.2596,0.2583,0.259,0.2575,0.2711,0.271,0.271,0.2709,0,0.1546,0.1594,0.1623,0.1703,0.1747,0.1792,0.1916,0.1949,0.2071,0.2168,0.2223,0.2377,0.2493,0.2583,0.27,0.2631,0.265,0.2623,0.2721,0.2709,0.242,0.2407,0.2482,0.2478,0.2473,0.247,0.2467,0,0.1502,0.1513,0.1612,0.1643,0.1689,0.178,0.1828,0.1951,0.1992,0.2189,0.2227,0.2405,0.2483,0.252,0.2617,0.2637,0.2607,0.2584,0.2492,0.2423,0.2403,0.2396,0.2389,0.246,0.2459,0.2458,0.2457,0,0.1419,0.1475,0.1503,0.1568,0.1631,0.1685,0.178,0.1812,0.195,0.2094,0.2173,0.2231,0.2362,0.2431,0.2475,0.248,0.2575,0.254,0.2548,0.246,0.2397,0.2379,0.2377,0.2443,0.2445,0.2446,0.2447,0,0.1376,0.1378,0.1429,0.1474,0.1539,0.1555,0.1627,0.1691,0.1766,0.1979,0.2011,0.2183,0.2346,0.2353,0.239,0.2385,0.2338,0.2236,0.2258,0.2275,0.2165,0.2052,0.1993,0,0,0,0,0,0.1326,0.1311,0.1329,0.1355,0.1403,0.1452,0.1563,0.1636,0.1801,0.1798,0.1895,0.1988,0.206,0.216,0.2114,0.2294,0.2343,0.2228,0.2235,0.2364,0.238,0.2268,0,0,0,0,0,0,0.1295,0.131,0.1288,0.1237,0.1241,0.1282,0.1352,0.1467,0.1482,0.1665,0.1725,0.1857,0.197,0.207,0.2076,0.2101,0.2059,0.2338,0.2332,0.2354,0.2369,0.2382,0.2273,0,0,0,0,0]},{"header":{"parameterUnit":"m.s-1","parameterCategory":2,"la1":30.2991,"la2":30.254,"lo1":-89.0895,"lo2":-89.0444,"dy":0.0017,"dx":0.0017,"nx":28,"ny":28,"refTime":"2023-09-22T21:00:00:Z","depth":"4","parameterNumber":3,"parameterNumberName":"V-component_of_CURRENTS"},"data":[0,0,0,0,0,0,0,0,0,0,0,0,0,0,0,0,0,0,0,0,0,0,0,0,0,0,0,0,0,0,0,0,0,0,0,0,0,0,0,0,0,0,0,0,0,0,0,0,0,0,0,0,0,0,0,0,0,0,0.0161,0.0161,0,0.0141,0.0141,0.014,0.0121,0.0121,0.0121,0.0121,0.0094,0.0093,0.0093,0,0,0,0,0,0,0,0,0,0,0,0,0,0.0151,0.0152,0.0161,0.0161,0.016,0.0141,0.0141,0.014,0.0121,0.0121,0.0121,0.0121,0.0094,0.0094,0.0093,0,0,0,0,0,0,0,0,0,0,0,0,0,0.0146,0.0152,0.0161,0.0149,0.0147,0.0141,0.0141,0.014,0.0121,0.0121,0.0121,0.012,0.0094,0.0094,0.0093,0.0096,0,0,0.0091,0.009,0,0,0,0,0,0,0,0,0.0146,0.0146,0.0151,0.0149,0.0148,0.0133,0.0127,0.0125,0.0122,0.0131,0.0121,0.012,0.0107,0.0105,0.0102,0.0094,0.0093,0.0091,0.009,0.009,0.009,0,0,0,0,0,0,0,0.0147,0.0147,0.0153,0.015,0.0149,0.0133,0.0132,0.0127,0.0121,0.013,0.0129,0.0127,0.0106,0.0103,0.0101,0.0093,0.0091,0.009,0.0089,0.0089,0.0087,0.0087,0,0,0,0,0,0,0.0151,0.0148,0.0154,0.0152,0.0146,0.0134,0.0133,0.0138,0.0121,0.0118,0.0127,0.0126,0.0104,0.0102,0.01,0.0111,0.009,0.0089,0.0089,0.0087,0.0087,0.0087,0,0,0,0,0,0,0.0151,0.0153,0.0154,0.0149,0.0148,0.0135,0.0141,0.0138,0.0139,0.0119,0.0116,0.0131,0.0104,0.0101,0.0103,0.011,0.0089,0.0088,0.0086,0.0087,0.0087,0.0128,0,0,0,0,0,0,0.0151,0.0153,0.0161,0.015,0.0149,0.0156,0.0141,0.0138,0.0138,0.0136,0.0121,0.0118,0.0103,0.0104,0.0102,0.0108,0.0088,0.0086,0.0086,0.0087,0.0126,0.013,0.0133,0,0,0,0,0,0.0151,0.0165,0.0162,0.0162,0.016,0.0156,0.0154,0.0143,0.0138,0.0142,0.0134,0.0119,0.0107,0.0104,0.0102,0.0108,0.0085,0.0086,0.0087,0.0125,0.0129,0.0133,0,0,0,0,0,0,0.0163,0.0164,0.016,0.0173,0.0167,0.0153,0.0156,0.0149,0.0146,0.0147,0.0127,0.0124,0.0126,0.0113,0.0111,0.0109,0.0092,0.0092,0.0121,0.0125,0.0129,0.0142,0.0087,0,0,0,0,0,0.0171,0.0183,0.0175,0.0185,0.0183,0.0172,0.017,0.0165,0.0158,0.0156,0.0145,0.0135,0.0127,0.0124,0.0115,0.0118,0.0092,0.0119,0.0123,0.0126,0.0135,0.0097,0.0098,0.009,0.009,0.009,0,0,0.0176,0.018,0.0185,0.0189,0.0183,0.0193,0.017,0.0173,0.0185,0.0155,0.0167,0.0149,0.0131,0.0133,0.0132,0.0123,0.0113,0.0127,0.013,0.0137,0.0098,0.0098,0.0099,0.0091,0.0091,0.0091,0,0,0.0197,0.0199,0.0216,0.0217,0.0218,0.0212,0.0216,0.0208,0.0206,0.0213,0.0193,0.0183,0.0173,0.0161,0.0154,0.0172,0.0133,0.0165,0.0193,0.0157,0.0157,0.0157,0.0119,0.0115,0.0166,0.0166,0.0166,0,0.0204,0.0229,0.0218,0.0237,0.0246,0.0225,0.0246,0.0242,0.0237,0.0238,0.0224,0.0207,0.0188,0.0189,0.0192,0.0181,0.015,0.0179,0.0161,0.016,0.0159,0.0121,0.0116,0.0168,0.0168,0.0168,0.0167,0,0.0237,0.0259,0.0269,0.029,0.0295,0.031,0.0305,0.0311,0.0304,0.0293,0.029,0.0262,0.0251,0.0238,0.0221,0.0209,0.0185,0.0169,0.0151,0.0162,0.0121,0.0115,0.0171,0.017,0.017,0.0169,0,0,0.0252,0.0286,0.0292,0.0317,0.0329,0.034,0.036,0.0368,0.0384,0.0361,0.0373,0.0345,0.0318,0.0309,0.0279,0.0244,0.0205,0.0206,0.0203,0.0169,0.0117,0.0108,0.01,0.0179,0.0178,0.0178,0.0089,0,0.0284,0.0335,0.0342,0.0392,0.0418,0.0415,0.0437,0.0441,0.0433,0.0436,0.0396,0.0394,0.0348,0.0344,0.0301,0.0234,0.0193,0.0231,0.011,0.0107,0.0098,0.0095,0.0176,0.0084,0.0083,0.0082,0.0081,0,0.0318,0.0352,0.0406,0.0456,0.0466,0.0492,0.0527,0.0546,0.0537,0.0528,0.0506,0.0469,0.0428,0.0386,0.027,0.0293,0.0212,0.0151,0.0145,0.0122,0.0088,0.007,0.007,0.0071,0.0072,0.0073,0.0073,0,0.0345,0.04,0.0449,0.0466,0.0511,0.054,0.0567,0.0575,0.0603,0.0591,0.0599,0.0531,0.0512,0.0399,0.027,0.0267,0.0131,0.0112,0.0026,0.0024,0.004,0.0041,0.0027,0.0027,0.0027,0.0028,0.0028,0,0.0381,0.0423,0.047,0.05,0.057,0.0584,0.0648,0.0662,0.0682,0.0716,0.0654,0.0656,0.0513,0.0418,0.0287,0.0139,0.014,0.0032,0.0002,0.0059,0.0063,0.0036,0.0038,0.0024,0.0025,0.0026,0.0026,0,0.0403,0.0432,0.0499,0.0559,0.0588,0.0642,0.0723,0.0761,0.0772,0.0816,0.0819,0.075,0.0628,0.047,0.0287,0.0177,0.0027,-0.0028,0.0046,0.002,-0.0061,-0.0055,-0.0126,-0.0127,-0.0128,-0.0128,-0.0129,0,0.0419,0.0453,0.0547,0.0596,0.0631,0.0711,0.0767,0.081,0.0853,0.0872,0.0893,0.0802,0.0731,0.0469,0.0294,0.0042,0.0005,-0.0078,-0.007,-0.0053,-0.0076,-0.0069,-0.0063,-0.013,-0.013,-0.0131,-0.0131,0,0.0445,0.0478,0.0532,0.0639,0.0713,0.0803,0.0885,0.0923,0.0966,0.0977,0.095,0.0823,0.0687,0.0479,0.0283,0.0101,-0.0027,-0.0088,-0.0087,-0.008,-0.0059,-0.008,-0.0072,-0.0134,-0.0134,-0.0133,-0.0133,0,0.0464,0.0505,0.0579,0.0674,0.0772,0.0865,0.0909,0.0956,0.1001,0.1012,0.1,0.0851,0.0769,0.0509,0.0327,0.0149,0.0104,0.0039,0.0032,0.0033,0.0103,0.0154,0.0121,0,0,0,0,0,0.0481,0.0526,0.0609,0.0716,0.0812,0.0877,0.0973,0.1004,0.1044,0.1031,0.1019,0.0888,0.0636,0.0531,0.0352,0.0301,0.0066,0.0084,-0.0015,-0.0151,-0.0147,-0.0094,0,0,0,0,0,0,0.0491,0.0563,0.0605,0.0732,0.0807,0.0921,0.0985,0.1014,0.1008,0.1016,0.0886,0.0832,0.0587,0.0736,0.0345,0.0293,0.0203,-0.0028,-0.0033,-0.0153,-0.015,-0.0147,-0.0091,0,0,0,0,0]}]]